Вернуться в каталог

FENGYUN 1C DEB

АктивенPO
NORAD 31717·DEBRIS·🇨🇳 China

Запущен May 10, 1999 с Taiyuan Satellite Launch Center

Loading…

Ближайшие Пролёты (ближайшие 24 часа)

TLE

УстаревающийSource: Space-Track

Эпоха: Sep 10, 2026, 11:10 UTC

1 31717U 99025CDQ 26253.46542009  .00002827  00000-0  12377-2 0  9993
2 31717  96.9316 339.1418 0155201 281.3173  77.0604 14.18047633984982

Отслеживайте FENGYUN 1C DEB в реальном времени с AllMySat

Download on the App Store